TimeEDT,TemperatureF,Dew PointF,Humidity,Sea Level PressureIn,VisibilityMPH,Wind Direction,Wind SpeedMPH,Gust SpeedMPH,PrecipitationIn,Events,Conditions,WindDirDegrees,DateUTC
12:15 AM,25.2,17.6,73,30.07,10.0,Calm,Calm,-,N/A,,Clear,0,2013-03-31 04:15:00
12:35 AM,26.2,18.7,73,30.06,10.0,SW,5.8,-,N/A,,Clear,220,2013-03-31 04:35:00
12:55 AM,26.6,17.4,68,30.07,10.0,SSW,5.8,-,N/A,,Clear,200,2013-03-31 04:55:00
1:15 AM,27.3,16.7,64,30.07,10.0,SSW,4.6,-,N/A,,Clear,210,2013-03-31 05:15:00
1:35 AM,26.2,17.2,69,30.08,10.0,South,3.5,-,N/A,,Clear,190,2013-03-31 05:35:00
1:55 AM,27.0,17.4,67,30.08,10.0,South,3.5,-,N/A,,Clear,190,2013-03-31 05:55:00
2:15 AM,27.3,16.5,64,30.07,10.0,Calm,Calm,-,N/A,,Clear,0,2013-03-31 06:15:00
2:35 AM,26.4,16.9,67,30.06,10.0,SSW,4.6,-,N/A,,Clear,210,2013-03-31 06:35:00
2:55 AM,25.5,16.7,69,30.07,10.0,SSW,5.8,-,N/A,,Clear,210,2013-03-31 06:55:00
3:15 AM,25.0,17.4,73,30.07,10.0,SSW,4.6,-,N/A,,Clear,200,2013-03-31 07:15:00
3:35 AM,25.0,16.9,71,30.07,10.0,SSW,5.8,-,N/A,,Clear,210,2013-03-31 07:35:00
3:55 AM,24.4,17.1,73,30.07,10.0,SSW,5.8,-,N/A,,Clear,210,2013-03-31 07:55:00
4:15 AM,24.3,16.7,73,30.06,10.0,SSW,5.8,-,N/A,,Clear,210,2013-03-31 08:15:00
4:35 AM,24.3,17.4,75,30.06,10.0,SSW,6.9,-,N/A,,Clear,210,2013-03-31 08:35:00
4:55 AM,24.3,17.1,74,30.06,10.0,SW,8.1,-,N/A,,Clear,220,2013-03-31 08:55:00
5:15 AM,25.2,16.5,70,30.05,10.0,South,5.8,-,N/A,,Clear,190,2013-03-31 09:15:00
5:35 AM,24.3,16.7,73,30.05,10.0,SW,6.9,-,N/A,,Clear,220,2013-03-31 09:35:00
5:55 AM,24.8,16.7,71,30.05,10.0,SSW,8.1,-,N/A,,Clear,210,2013-03-31 09:55:00
6:15 AM,24.4,16.5,72,30.04,10.0,SSW,4.6,-,N/A,,Clear,200,2013-03-31 10:15:00
6:35 AM,24.6,16.3,71,30.04,10.0,SSW,4.6,-,N/A,,Clear,200,2013-03-31 10:35:00
6:55 AM,25.5,16.3,68,30.04,10.0,SSW,4.6,-,N/A,,Clear,210,2013-03-31 10:55:00
7:15 AM,26.2,17.8,70,30.03,10.0,SW,5.8,-,N/A,,Clear,220,2013-03-31 11:15:00
7:35 AM,26.8,17.8,69,30.02,10.0,South,4.6,-,N/A,,Clear,190,2013-03-31 11:35:00
7:55 AM,29.1,18.7,65,30.02,10.0,SSW,3.5,-,N/A,,Clear,200,2013-03-31 11:55:00
8:15 AM,29.3,18.5,64,30.02,10.0,SSW,3.5,-,N/A,,Clear,210,2013-03-31 12:15:00
8:35 AM,30.9,18.7,61,30.02,10.0,SW,4.6,-,N/A,,Clear,220,2013-03-31 12:35:00
8:55 AM,32.9,20.1,59,30.01,10.0,South,3.5,-,N/A,,Clear,180,2013-03-31 12:55:00
9:15 AM,37.0,17.6,45,30.01,10.0,SSW,4.6,-,N/A,,Clear,210,2013-03-31 13:15:00
9:35 AM,36.9,18.3,47,30.00,10.0,SW,3.5,-,N/A,,Clear,220,2013-03-31 13:35:00
9:55 AM,39.6,18.3,42,30.00,10.0,SSW,5.8,-,N/A,,Clear,200,2013-03-31 13:55:00
10:15 AM,41.7,19.6,41,29.99,10.0,SSW,6.9,-,N/A,,Clear,200,2013-03-31 14:15:00
10:55 AM,44.4,18.5,35,29.98,10.0,South,8.1,-,N/A,,Clear,190,2013-03-31 14:55:00
11:15 AM,45.7,19.4,35,29.98,10.0,South,10.4,17.3,N/A,,Clear,190,2013-03-31 15:15:00
11:35 AM,45.9,20.1,36,29.97,10.0,South,8.1,17.3,N/A,,Clear,190,2013-03-31 15:35:00
11:55 AM,45.9,20.8,37,29.97,10.0,SSW,13.8,18.4,N/A,,Clear,200,2013-03-31 15:55:00
12:15 PM,47.3,21.0,35,29.95,10.0,SSW,11.5,17.3,N/A,,Clear,200,2013-03-31 16:15:00
12:35 PM,48.2,20.3,33,29.94,10.0,SSW,12.7,16.1,N/A,,Clear,200,2013-03-31 16:35:00
12:55 PM,48.4,19.4,32,29.93,10.0,South,8.1,-,N/A,,Clear,170,2013-03-31 16:55:00
1:15 PM,48.6,20.5,33,29.92,10.0,SSE,9.2,-,N/A,,Clear,150,2013-03-31 17:15:00
1:35 PM,50.0,19.4,30,29.91,10.0,SE,13.8,18.4,N/A,,Clear,140,2013-03-31 17:35:00
1:55 PM,49.3,20.5,32,29.90,10.0,South,5.8,18.4,N/A,,Clear,190,2013-03-31 17:55:00
2:15 PM,50.9,19.0,28,29.89,10.0,SSW,16.1,21.9,N/A,,Clear,200,2013-03-31 18:15:00
2:35 PM,50.9,18.1,27,29.88,10.0,SSE,16.1,19.6,N/A,,Clear,160,2013-03-31 18:35:00
2:55 PM,50.7,18.0,27,29.87,10.0,SSE,16.1,21.9,N/A,,Clear,160,2013-03-31 18:55:00
3:15 PM,49.1,18.1,29,29.86,10.0,SSE,13.8,23.0,N/A,,Clear,160,2013-03-31 19:15:00
3:35 PM,49.1,17.6,29,29.85,10.0,SSE,11.5,18.4,N/A,,Mostly Cloudy,160,2013-03-31 19:35:00
3:55 PM,49.6,18.0,29,29.84,10.0,South,10.4,16.1,N/A,,Scattered Clouds,170,2013-03-31 19:55:00
4:15 PM,49.6,19.6,31,29.83,10.0,SSE,10.4,-,N/A,,Clear,160,2013-03-31 20:15:00
4:35 PM,49.5,20.3,32,29.82,10.0,SSE,12.7,17.3,N/A,,Clear,160,2013-03-31 20:35:00
4:55 PM,49.5,18.9,30,29.81,10.0,SSE,10.4,-,N/A,,Scattered Clouds,160,2013-03-31 20:55:00
5:15 PM,49.1,18.5,30,29.80,10.0,SSE,11.5,23.0,N/A,,Scattered Clouds,160,2013-03-31 21:15:00
5:35 PM,48.7,18.7,30,29.80,10.0,SSE,8.1,18.4,N/A,,Scattered Clouds,160,2013-03-31 21:35:00
5:55 PM,48.7,18.1,30,29.80,10.0,SSE,13.8,18.4,N/A,,Clear,160,2013-03-31 21:55:00
6:15 PM,48.6,17.6,29,29.79,10.0,SSE,13.8,21.9,N/A,,Clear,160,2013-03-31 22:15:00
6:35 PM,48.2,18.0,30,29.79,10.0,South,12.7,18.4,N/A,,Clear,170,2013-03-31 22:35:00
6:55 PM,48.0,17.8,30,29.79,10.0,South,10.4,18.4,N/A,,Clear,170,2013-03-31 22:55:00
7:15 PM,46.6,19.6,34,29.78,10.0,SSE,9.2,-,N/A,,Scattered Clouds,160,2013-03-31 23:15:00
7:35 PM,46.4,18.9,33,29.77,10.0,SSE,9.2,-,N/A,,Scattered Clouds,160,2013-03-31 23:35:00
7:55 PM,46.2,19.6,35,29.77,10.0,SSE,10.4,-,N/A,,Mostly Cloudy,160,2013-03-31 23:55:00
8:15 PM,45.1,20.8,38,29.77,10.0,SSE,11.5,-,N/A,,Overcast,160,2013-04-01 00:15:00
8:35 PM,45.7,20.1,36,29.76,10.0,SSE,9.2,-,N/A,,Overcast,160,2013-04-01 00:35:00
8:55 PM,46.0,19.2,34,29.76,10.0,South,12.7,-,N/A,,Overcast,170,2013-04-01 00:55:00
9:15 PM,46.2,19.4,34,29.76,10.0,South,9.2,-,N/A,,Overcast,170,2013-04-01 01:15:00
9:35 PM,45.7,20.3,37,29.75,10.0,SSE,9.2,-,N/A,,Overcast,160,2013-04-01 01:35:00
9:55 PM,44.6,21.6,40,29.75,10.0,SSE,8.1,-,N/A,,Overcast,160,2013-04-01 01:55:00
10:15 PM,45.1,21.4,39,29.74,10.0,South,6.9,-,N/A,,Overcast,170,2013-04-01 02:15:00
10:35 PM,45.3,25.0,45,29.74,10.0,South,15.0,23.0,N/A,,Overcast,170,2013-04-01 02:35:00
10:55 PM,44.1,29.8,57,29.75,10.0,SSE,18.4,25.3,N/A,,Light Drizzle,160,2013-04-01 02:55:00
11:15 PM,41.9,32.2,68,29.74,10.0,South,13.8,26.5,N/A,,Light Drizzle,170,2013-04-01 03:15:00
11:35 PM,41.0,32.9,73,29.74,10.0,South,9.2,-,N/A,Rain,Light Rain,170,2013-04-01 03:35:00
11:55 PM,39.9,33.4,78,29.73,10.0,South,11.5,16.1,N/A,Rain,Light Rain,170,2013-04-01 03:55:00